Platinum, AK

11:18 PM AKST on November 20, 2019 (GMT -0900)
Platinum

Weather History for PAPM - October, 2019

Change the Weather History Date:

Sunday, October 20, 2019

  Actual Average (WUND) Record (WUND)
Temperature  
Mean Temperature 38 °F -  
Max Temperature 45 °F - - (-1)
Min Temperature 33 °F - - (-1)
Degree Days  
Heating Degree Days 26    
Moisture  
Dew Point 35 °F    
Average Humidity 93    
Maximum Humidity 100    
Minimum Humidity 76    
Precipitation  
Precipitation 0.13 in - - ()
Sea Level Pressure  
Sea Level Pressure 29.56 in    
Wind  
Wind Speed 12 mph (ENE)    
Max Wind Speed 17 mph    
Max Gust Speed -    
Visibility 10 miles    
Events Rain    
Averages and records for this station are not official NWS values.
T = Trace of Precipitation, MM = Missing Value Source: NWS Daily Summary

Daily Weather History Graph

Daily Weather History Graph

Search for Another Location

Airport or City:

Astronomy

Oct. 20, 2019 Rise Set
Actual Time 9:36 AM AKDT 7:26 PM AKDT
Civil Twilight 8:54 AM AKDT 8:08 PM AKDT
Nautical Twilight 8:07 AM AKDT 8:54 PM AKDT
Astronomical Twilight 7:21 AM AKDT 9:41 PM AKDT
Moon 11:46 PM AKDT (10/20) 5:18 PM AKDT (10/20)
Length of Visible Light 11h 13m
Length of Day
9h 50m
Waning Gibbous, 58% of the Moon is Illuminated
Oct 20
Waning Gibbous
Oct 21
Last Quarter
Oct 27
New
Nov 4
First Quarter
Nov 12
Full

Hourly Weather History & Observations

Time (AKDT) Temp. Windchill Dew Point Humidity Pressure Visibility Wind Dir Wind Speed Gust Speed Precip Events Conditions
12:56 AM 37.0 °F 29.8 °F 35.1 °F 93% 29.52 in 10.0 mi ENE 10.4 mph - 0.06 in Rain Light Rain
1:52 AM 35.6 °F 26.2 °F 33.8 °F 93% 29.52 in 10.0 mi ENE 15.0 mph - 0.05 in Rain Light Rain
1:56 AM 36.0 °F 26.3 °F 34.0 °F 93% 29.52 in 10.0 mi ENE 16.1 mph - 0.05 in Rain Light Rain
2:32 AM 35.6 °F 26.6 °F 33.8 °F 93% 29.52 in 10.0 mi ENE 13.8 mph - 0.00 in Rain Light Rain
2:40 AM 35.6 °F 26.2 °F 33.8 °F 93% 29.52 in 10.0 mi ENE 15.0 mph - 0.00 in   Overcast
2:56 AM 35.1 °F 25.5 °F 34.0 °F 96% 29.53 in 10.0 mi ENE 15.0 mph - 0.01 in   Overcast
3:56 AM 35.1 °F 24.8 °F 34.0 °F 96% 29.55 in 10.0 mi ENE 17.3 mph - N/A   Mostly Cloudy
4:56 AM 35.1 °F 25.5 °F 34.0 °F 96% 29.55 in 10.0 mi ENE 15.0 mph - N/A   Overcast
5:56 AM 35.1 °F 25.9 °F 34.0 °F 96% 29.56 in 10.0 mi ENE 13.8 mph - N/A   Mostly Cloudy
6:56 AM 34.0 °F 26.6 °F 33.1 °F 96% 29.56 in 10.0 mi East 9.2 mph - 0.00 in   Overcast
7:09 AM 33.8 °F 26.4 °F 33.8 °F 100% 29.55 in 10.0 mi ENE 9.2 mph - N/A   Overcast
8:09 AM 35.6 °F 29.2 °F 33.8 °F 93% 29.56 in 10.0 mi East 8.1 mph - N/A   Mostly Cloudy
8:56 AM 34.0 °F 28.0 °F 32.0 °F 92% 29.58 in 10.0 mi ENE 6.9 mph - 0.00 in Rain Light Rain
9:20 AM 35.6 °F 28.0 °F 33.8 °F 93% 29.57 in 10.0 mi ENE 10.4 mph - 0.00 in Rain Light Rain
9:56 AM 35.1 °F 26.4 °F 34.0 °F 96% 29.58 in 10.0 mi ENE 12.7 mph - 0.01 in   Mostly Cloudy
10:56 AM 34.0 °F 26.0 °F 33.1 °F 96% 29.59 in 10.0 mi ENE 10.4 mph - N/A   Partly Cloudy
11:56 AM 36.0 °F 28.0 °F 35.1 °F 97% 29.60 in 10.0 mi ENE 11.5 mph - N/A   Mostly Cloudy
12:56 PM 37.0 °F 28.9 °F 36.0 °F 96% 29.60 in 10.0 mi ENE 12.7 mph - N/A   Partly Cloudy
1:56 PM 39.9 °F 32.5 °F 37.9 °F 93% 29.60 in 10.0 mi ENE 12.7 mph - N/A   Partly Cloudy
2:56 PM 39.9 °F 32.9 °F 37.9 °F 93% 29.59 in 10.0 mi ENE 11.5 mph - N/A   Scattered Clouds
3:56 PM 43.0 °F 38.8 °F 39.0 °F 86% 29.58 in 10.0 mi NE 6.9 mph - N/A   Mostly Cloudy
4:03 PM 42.8 °F 38.6 °F 39.2 °F 87% 29.57 in 10.0 mi NE 6.9 mph - N/A   Mostly Cloudy
4:56 PM 44.1 °F 39.0 °F 37.0 °F 76% 29.58 in 10.0 mi SSE 9.2 mph - N/A   Mostly Cloudy
6:56 PM 39.0 °F 34.0 °F 36.0 °F 89% 29.56 in 10.0 mi East 6.9 mph - N/A   Partly Cloudy
7:56 PM 36.0 °F 30.3 °F 34.0 °F 93% 29.56 in 10.0 mi East 6.9 mph - N/A   Clear
8:56 PM 37.9 °F 30.9 °F 36.0 °F 93% 29.55 in 10.0 mi ENE 10.4 mph - N/A   Clear
9:56 PM 37.0 °F 29.3 °F 35.1 °F 93% 29.55 in 10.0 mi ENE 11.5 mph - N/A   Clear
10:56 PM 36.0 °F 26.0 °F 34.0 °F 93% 29.54 in 10.0 mi ENE 17.3 mph - N/A   Clear
11:56 PM 37.0 °F 27.4 °F 34.0 °F 89% 29.54 in 10.0 mi NE 17.3 mph - N/A   Mostly Cloudy